Location: Overspoor
(51.4747°N, 5.6641°E)
Time: 05:06:00
(UTC+02:00)

DUCHIFAT 1 - Pass Details

Date: 02 July 2022
Orbit: 580 x 596 km, 98.0° (Epoch: 09 August)

Event Time Altitude Azimuth Distance (km) Brightness Sun altitude
Rises 04:29:43 0° 13° (NNE) 2,846 ? -6.8°
Reaches altitude 10° 04:31:54 10° 13° (NNE) 1,941 ? -6.6°
Maximum altitude 04:36:07 82° 286° (WNW) 609 ? -6.2°
Drops below altitude 10° 04:40:19 10° 199° (SSW) 1,932 ? -5.8°
Enters shadow 04:41:18 - 199° (SSW) 2,340 ? -5.7°
